Regional Weather Roundup
Issued by NWS Pendleton, OR

Home | Current Version | Previous Version | Text Only | Print | Product List | Glossary On
Versions: 1 2 3 4 5 6 7 8 9 10 11 12 13 14 15 16 17 18 19 20 21 22 23 24 25 26 27 28 29 30 31 32 33 34 35 36 37 38 39 40 41 42 43 44 45 46 47 48 49 50
866
ASUS46 KPDT 011110
RWRPDT
PENDLETON REGIONAL WEATHER ROUNDUP
NATIONAL WEATHER SERVICE PENDLETON OREGON
400 AM PDT SUN MAY 1 2016

NOTE: FAIR INDICATES FEW OR NO CLOUDS BELOW 12,000 FEET WITH NO
SIGNIFICANT WEATHER AND/OR OBSTRUCTIONS TO VISIBILITY.

# INDICATES UNOFFICIAL STATION AND DATA

WAZ520-011210-
EAST SLOPES OF WASHINGTON CASCADES

CITY            SKY/WX      TMP DP  RH  WIND    PRES   REMARKS
#CLE ELUM 2NW   N/A         36  36  100 CALM    N/A
#CLE ELUM LAKE  N/A         44  39  82  SE1     30.21S
#MANASTASH CYN  N/A         41  33  73  CALM    30.21F
#NELSON 3SW     N/A         39  36  89  CALM    30.42S
#NILE           N/A         40  35  82  CALM    29.53S
#RONALD 2NW     N/A         44  N/A N/A N1      30.11F
#TROUT LAKE 1NE N/A         38  35  89  CALM    30.20S
#TROUT LAKE 1E  N/A         37  35  92  CALM    30.17F
$$

WAZ521-011210-
SIMCOE HIGHLANDS

CITY            SKY/WX      TMP DP  RH  WIND    PRES   REMARKS
#BICKLETON HS   N/A         48  34  58  N7      N/A
#CENTERVILLE 1SWN/A         38  34  85  CALM    30.16S
#GOLDENDALE 1NE N/A         38  29  70  N1      N/A
#GOODNOE HILLS  N/A         56  44  64  N9      30.07F
#LYLE 6NE       N/A         49  43  80  CALM    30.15S
$$

WAZ026-011210-
KITTITAS VALLEY

CITY            SKY/WX      TMP DP  RH  WIND    PRES   REMARKS
ELLENSBURG AP   CLEAR       44  38  79  NE3     30.24S
YTC-OPS AREA    CLEAR       50  39  66  NW10    30.24F
#ELLENSBURG 3NE N/A         41  38  89  CALM    30.23S
#ELLENSBURG     N/A         44  43  96  CALM    N/A
#ELLENSBURG 1E  N/A         40  N/A N/A CALM    N/A
#KITTITAS 3S    N/A         36  34  92  CALM    30.21S
#THORP 6N       N/A         42  38  86  N6      30.24S
$$

WAZ027-011210-
YAKIMA VALLEY

CITY            SKY/WX      TMP DP  RH  WIND    PRES   REMARKS
YAKIMA AIRPORT  CLEAR       47  37  68  W7      30.23S
YAKIMA-VAGABOND CLEAR       47  38  71  NE5     30.21S
#DONALD 2NE     N/A         53  27  36  N3      29.05S
#GRANDVIEW      N/A         46  42  86  CALM    30.21R
#MABTON         N/A         49  43  80  CALM    30.20S
#NACHES 2SW     N/A         50  39  66  W6      30.24R
#TERRACE HTS    N/A         49  41  74  CALM    30.16S
#WEST VALLEY    N/A         49  39  68  CALM    30.19S
#W YAKIMA       N/A         50  39  66  CALM    30.21S
#WILEY CITY 3W  N/A         45  35  68  CALM    30.19S
$$

WAZ028-011210-
LOWER COLUMBIA BASIN...WASHINGTON

CITY            SKY/WX      TMP DP  RH  WIND    PRES   REMARKS
PASCO           CLEAR       46  41  83  CALM    30.21R
PROSSER AWOS    N/A         41  41  100 S3      30.23S
RICHLAND AWOS   CLEAR       47  44  89  W3      30.20S
#BENTON CITY    N/A         46  42  86  CALM    30.10S
#CONNELL 5N     N/A         41  39  93  CALM    30.19S
#ELTOPIA 6NW    N/A         49  44  83  CALM    29.16S
#KAHLOTUS       N/A         46  42  86  SE2     30.19S
#KENNEWICK 3S   N/A         48  43  83  CALM    30.18F
#PATERSON       N/A         47  43  86  CALM    30.16S
#SAGEMOOR 2W    N/A         47  43  86  N5      30.03S
#WEST PASCO     N/A         47  41  79  CALM    30.28R
$$

WAZ029-011210-
FOOTHILLS OF THE BLUES...WASHINGTON

CITY            SKY/WX      TMP DP  RH  WIND    PRES   REMARKS
WALLA WALLA AP  CLEAR       45  41  86  E3      30.18S
#CLYDE 6NW      N/A         47  43  86  SE7     30.17F
#LOWDEN 2SE     N/A         40  39  96  CALM    30.15F
#PLEASANT VIEW 1N/A         44  42  93  CALM    30.22S
#PRESCOTT       N/A         42  41  96  CALM    30.17S
#WHITMAN COLLEGEN/A         47  42  83  E1      30.22F
#WAITSBURG 5S   N/A         45  40  82  CALM    30.27R
#WALLA WALLA U  N/A         46  42  86  CALM    30.18S
#WHITMAN MISSIONN/A         41  39  93  CALM    30.20S
$$

WAZ030-011210-
BLUE MOUNTAINS...WASHINGTON

CITY            SKY/WX      TMP DP  RH  WIND    PRES   REMARKS
#DIXIE 5SE      N/A         51  38  61  N3      30.11S
$$

ORZ009-041-WAZ024-011210-
COLUMBIA RIVER GORGE

CITY            SKY/WX      TMP DP  RH  WIND    PRES   REMARKS
HOOD RIVER AP   CLEAR       45  41  86  CALM    30.21S
THE DALLES AP   CLEAR       48  44  86  CALM    30.19S
#ARLINGTON AIRPON/A         46  41  83  SE3     30.18S
#CELILO DOT     N/A         51  43  74  S1      N/A
#MOSIER 1S      N/A         48  37  65  CALM    30.18S
#MURDOCK        N/A         51  46  83  NW8     30.15F

$$

ORZ510-011210-
NORTH CENTRAL OREGON

CITY            SKY/WX      TMP DP  RH  WIND    PRES   REMARKS
#ANTELOPE       N/A         45  40  82  NE7     30.06S
#COW CYN RST AREN/A         46  39  76  N6      N/A
#DUFUR 9E       N/A         50  43  77  CALM    30.22S
#GRASS VALLEY   N/A         38  37  96  S1      N/A
#GRASS VALLEY 1SN/A         46  41  83  CALM    30.12S
#KENT DOT       N/A         45  37  73  N3      N/A
#MAUPIN SCHOOL  N/A         47  37  68  CALM    30.22S
#MORO SCHOOL    N/A         42  40  93  CALM    30.19S
#SHANIKO 5WSW   N/A         43  36  76  N8      N/A
#TYGH VALLEY 2NEN/A         45  40  82  CALM    30.17R
#WAPANITIA AIRPON/A         40  36  85  CALM    30.19S
#WASCO DOT      N/A         38  36  92  SE3     N/A
#WASCO 5NE      N/A         44  41  89  CALM    30.18S
$$

ORZ511-011210-
CENTRAL OREGON

CITY            SKY/WX      TMP DP  RH  WIND    PRES   REMARKS
BEND AIRPORT    CLEAR       41  34  76  NW6     30.17S
MADRAS AIRPORT  CLEAR       41  36  82  CALM    30.21R
PRINEVILLE AP   CLEAR       37  34  89  CALM    30.17F
REDMOND AIRPORT CLEAR       39  32  76  S3      30.17S
#ASHWOOD SCHOOL N/A         40  34  79  SE5     30.14S
#BEND 1SW       N/A         42  37  82  N3      N/A
#BEND-AWBREY    N/A         44  37  76  CALM    30.16S
#BEND-KIM LN    N/A         42  36  79  NW2     30.14F
#CULVER         N/A         40  34  79  CALM    30.15S
#LAKE BILLY CHINN/A         47  N/A N/A CALM    30.23S
#POWELL BUTTE   N/A         41  35  79  CALM    30.03R
#PRINEVILLE 3N  N/A         39  36  89  E3      30.14F
#WARM SPRINGS   N/A         49  39  68  SW1     30.15S

$$


ORZ509-011210-
EAST SLOPES OF OREGON CASCADES

CITY            SKY/WX      TMP DP  RH  WIND    PRES   REMARKS
SISTERS AWOS    N/A         30  27  88  CALM    30.14F
#BLUE BOX PASS  N/A         44  N/A N/A CALM    N/A
#BLACK BUTTE RNCN/A         38  34  85  CALM    30.17F
#CAMP SHERMAN   N/A         31  26  81  CALM    30.24F
#LA PINE 4NW    N/A         38  31  76  CALM    30.19F
#LAVA BUTTE DOT N/A         40  31  70  N1      N/A
#SISTERS AIRPOR N/A         31  30  96  CALM    30.17S
#SISTERS ODOT   N/A         33  N/A N/A SE1     N/A
#SISTERS 3N     N/A         30  21  69  CALM    30.17S
#SUNRIVER       N/A         42  37  82  N1      30.16F
#WANOGA BUTTE D N/A         37  32  82  NE14    N/A    WCI 28

$$

ORZ044-011210-
LOWER COLUMBIA BASIN...OREGON

CITY            SKY/WX      TMP DP  RH  WIND    PRES   REMARKS
HERMISTON       CLEAR       41  39  93  SE5     30.18S
#ECHO 8SW       N/A         43  40  89  S2      30.19F
#I-84 EX 198 DOTN/A         45  41  86  NE3     N/A
#UMATILLA SCHOOLN/A         42  42  100 E1      30.20F
#UMATILLA       N/A         46  40  79  CALM    30.12S
$$

ORZ507-011210-
NORTHERN FOOTHILLS OF THE BLUES

CITY            SKY/WX      TMP DP  RH  WIND    PRES   REMARKS
PENDLETON AIRPT CLEAR       41  38  89  E6      30.17F
#ADAMS 3WNW     N/A         36  34  92  VRB1    30.18F
#ATHENA         N/A         37  35  92  CALM    30.21S
#CAYUSE         N/A         47  41  79  E13     30.16F WCI 41
#HELIX SCHOOL   N/A         38  35  89  CALM    30.18S
#HELIX 3N       N/A         44  40  86  N1      30.14F
#HELIX 6SW      N/A         39  36  89  E2      30.17S
#HOLDMAN 5SE    N/A         39  37  92  CALM    30.16F
#HOLDMAN 6E     N/A         44  40  86  CALM    29.98F
#M-F FERNDALE   N/A         43  38  82  CALM    30.17S
#M-FREEWATER 5SEN/A         46  40  79  N5      30.17S
#PENDLETON DNTN N/A         41  34  76  CALM    30.22S
#PDT AQUATIC CTRN/A         41  30  65  CALM    30.19S
#PENDLETON 7NW  N/A         40  35  82  CALM    27.45S
#PILOT ROCK     N/A         40  32  73  CALM    30.18F
#TUTUILLA       N/A         35  32  89  CALM    30.19S
#UMAPINE 2E     N/A         40  38  92  CALM    30.15F

$$

ORZ508-011210-
SOUTHERN FOOTHILLS OF THE BLUES

CITY            SKY/WX      TMP DP  RH  WIND    PRES   REMARKS
#AJAX           N/A         50  37  61  CALM    27.92S
#CONDON SCHOOL  N/A         45  41  86  N5      30.13F
#CONDON 5W      N/A         45  39  79  NE2     30.16S
#FOSSIL SCHOOL  N/A         44  39  82  CALM    30.12S
#HEPPNER EOC    N/A         43  38  82  SE3     30.11F
#HEPPNER 4NE    N/A         42  38  86  E3      30.17S
#LEXINGTON 2SE  N/A         43  38  82  CALM    30.17S
#RUGGS 2SW      N/A         42  38  86  CALM    30.19F

$$

ORZ502-503-011210-
BLUE MOUNTAINS

CITY            SKY/WX      TMP DP  RH  WIND    PRES   REMARKS
MEACHAM         CLEAR       30  28  92  CALM    30.18F
#BATTLE MTN DOT N/A         38  38  100 CALM    N/A
#HARDMAN 10S    N/A         61  34  36  N5      30.22S
#HEPPNER 15SE   N/A         36  36  100 CALM    25.69F
#LADD CYN SMT   N/A         37  33  85  N1      N/A
#LADD CREEK ODOTN/A         39  37  92  CALM    N/A
#N POWDER DOT   N/A         41  39  93  NE6     N/A
#PIKES PEAK     N/A         50  35  56  NE2     27.99S
#TOLLGATE       N/A         37  34  89  E2      30.03F
#UKIAH          N/A         33  31  92  CALM    30.12F
#WESTON 4E      N/A         43  38  82  E6      30.16F
$$

ORZ505-011210-
JOHN DAY BASIN

CITY            SKY/WX      TMP DP  RH  WIND    PRES   REMARKS
JOHN DAY        CLEAR       38  34  85  S3      30.17S
#DAYVILLE SCHOOLN/A         46  36  68  E1      30.12S
#MITCHELL 8NW   N/A         46  37  71  CALM    30.35S
#MONUMENT HS    N/A         40  35  82  CALM    30.16S
#MT. VERNON 5SE N/A         38  35  89  CALM    30.12S
#WINLOCK        N/A         43  37  79  NW7     30.13F
$$

ORZ506-011210-
OCHOCO AND JOHN DAY HIGHLANDS

CITY            SKY/WX      TMP DP  RH  WIND    PRES   REMARKS
#HORSE RIDGE DO N/A         33  27  78  NE2     N/A
#KEYES SMT DOT  N/A         43  36  76  N5      N/A
#PAULINA SCHOOL N/A         59  32  36  N3      29.35S
#PINE MTN OBS   N/A         34  31  89  CALM    N/A
#SENECA         N/A         33  N/A N/A CALM    N/A
#SENECA 9NW     N/A         35  32  89  CALM    30.11S
$$

ORZ049-011210-
GRANDE RONDE VALLEY

CITY            SKY/WX      TMP DP  RH  WIND    PRES   REMARKS
LA GRANDE       CLEAR       45  32  60  N8      30.17S
#COVE           N/A         38  37  96  S1      30.19S
#COVE SCHOOL    N/A         38  36  92  CALM    30.18S
#ELGIN 3N       N/A         36  33  89  CALM    30.17S
#ELGIN 1E       N/A         38  33  82  CALM    N/A
#ISLAND CITY 4N N/A         47  44  89  CALM    30.18F
#LADD CYN DOT   N/A         44  40  86  SE6     N/A
#UNION 1S       N/A         42  38  86  E1      30.09S
$$

ORZ050-011210-
WALLOWA COUNTY

CITY            SKY/WX      TMP DP  RH  WIND    PRES   REMARKS
JOSEPH AIRPORT  CLOUDY      37  37  100 CALM    30.21S
#IMNAHA SCHOOL  N/A         44  42  93  CALM    30.20S
#IMNAHA 10S     N/A         41  40  96  CALM    30.17F
#JOSEPH 3N      N/A         36  31  82  CALM    30.20S
#JOSEPH 3W      N/A         39  39  100 CALM    30.01S
#PROMISE 1S     N/A         37  36  96  CALM    30.32S



$$



USA.gov is the U.S. government's official web portal to all federal, state and local government web resources and services.